NINGXIA-1 3 (44781 NORAD) Tracking and Keplerian Element Data

This shows tracking and keplerian element data for the satellite.

Feedback or suggestion? Click here.




ElementValue
Catalog44781
NameNINGXIA-1 3
Epoch Orbit312
Epoch Day339.50561743
Epoch Year2019
RAAN36.1458
Inclination45.0045
Eccentricity0.0010827
Argument of Perigee351.4777
Mean Anonmoly8.586
Mean Motion14.00979061
Decay Rate-1.3E-06
L11 44781U 19076C 19339.50561743 -.00000130 00000-0 00000+0 0 9997
L22 44781 45.0045 36.1458 0010827 351.4777 8.5860 14.00979061 3123

Live tracking and technical data element details for NINGXIA-1 3 (NORAD 44781). NINGXIA-1 3 can be tracked NOW for your location showing map with azimuth and elevation plus other details from your city location.

Track the satellite on the map from your city or location and see movement details for azimuth, elevation, latitude, longitude, range, height, and movement on the map or in text.







IsCatalogInMostPopularTable: catalog: 44781, numindb: 4
Update: records affected: 1



GetName: 44781 NINGXIA-1 3

Hit Count: updated at: Thu, 05 Dec 2019 16:44:39 GMT